Regional Weather Roundup
Issued by NWS

Home | Current Version | Previous Version | Text Only | Print | Product List | Glossary On
Versions: 1 2 3 4 5 6 7 8 9 10 11 12 13 14 15 16 17 18 19 20 21 22 23 24 25 26 27 28 29 30 31 32 33 34 35 36 37 38 39 40 41 42 43 44 45 46 47 48 49 50
000
ASUS43 KBIS 231731
RWRND
NORTH DAKOTA REGIONAL WEATHER ROUNDUP
NATIONAL WEATHER SERVICE EASTERN NORTH DAKOTA/GRAND FORKS ND
1200 PM CDT FRI JUN 23 2017

  NOTE: "FAIR" INDICATES FEW OR NO CLOUDS BELOW 12,000 FEET WITH NO
  SIGNIFICANT WEATHER AND/OR OBSTRUCTIONS TO VISIBILITY.

NDZ001>003-009>011-017-231800-
...NORTHWEST NORTH DAKOTA...

CITY           SKY/WX    TMP DP  RH WIND       PRES   REMARKS
WILLISTON      FAIR      62  34  35 NW30G38   30.13S
MINOT          PTSUNNY   61  37  41 W24G36    30.03R
MINOT AFB      PTSUNNY   59  38  45 NW26G37   30.01S
$$

NDZ018>021-031>035-040>046-231800-
...SOUTHWEST NORTH DAKOTA...

CITY           SKY/WX    TMP DP  RH WIND       PRES   REMARKS
BISMARCK       PTSUNNY   61  37  41 NW22G36   30.07R
DICKINSON      FAIR      59  31  34 NW22G37   30.12S
GARRISON         N/A     59  38  45 NW28G35   30.05S
HETTINGER      FAIR      60  30  32 NW31G44   30.16R
$$

NDZ004>008-012>016-024-026-027-054-231800-
...NORTHEAST NORTH DAKOTA...

CITY           SKY/WX    TMP DP  RH WIND       PRES   REMARKS
GRAND FORKS    LGT RAIN  59  52  77 N14       29.88R
GRAND FORKS AF CLOUDY    61  48  63 NW16G23   29.89R
DEVILS LAKE    CLOUDY    57  42  57 NW25      29.94R
$$

NDZ022-023-025-028>030-036>039-047>053-231800-
...SOUTHEAST NORTH DAKOTA...

CITY           SKY/WX    TMP DP  RH WIND       PRES   REMARKS
JAMESTOWN      CLOUDY    59  44  57 NW21G29   29.96S
FARGO          CLOUDY    63  50  62 NW18      29.89R
WAHPETON       CLOUDY    63  46  55 NW18G26   29.90F
$$




USA.gov is the U.S. government's official web portal to all federal, state and local government web resources and services.